Preview of NWS' New Version of Forecast
This preview is not operational and should not be used for support decisions.

Regional Weather Roundup (RWR)

Issued by National Weather Service (NWS)

                            
000
ASUS44 KJAN 212210
RWRMS 

MISSISSIPPI HOURLY WEATHER ROUNDUP
NATIONAL WEATHER SERVICE JACKSON MS
400 PM CST THU FEB 21 2019

NOTE: "FAIR: INDICATES FEW OR NO CLOUDS BELOW 12,000 FEET WITH NO
SIGNIFICANT WEATHER AND/OR OBSTRUCTIONS TO VISIBILITY.

MSZ001>002-007>008-010>013-018>021-025>028-034>036-212300-
NORTHWEST MISSISSIPPI
  
CITY           SKY/WX    TMP DP  RH WIND       PRES   REMARKS
BATESVILLE     LGT RAIN  45  45 100 VRB3      30.12R                  
CLARKSDALE     CLOUDY    45  45 100 N7        30.14R FOG              
CLEVELAND      RAIN      45  45 100 N10G16    30.08F                  
GREENWOOD      LGT RAIN  47  45  93 N6        30.07R                  
GREENVILLE     LGT RAIN  45  43  93 NE14      30.06F                  
OLIVE BRANCH   RAIN      41  41 100 NE6       30.15R FOG              
OXFORD         LGT RAIN  43  43 100 E10       30.12R                  
TUNICA         RAIN      43  41  93 CALM      30.19R                  
WINONA         LGT RAIN  45  45 100 NE8       30.05F                  
$$

MSZ003>006-009-014>017-022>024-029>033-037>039-212300-
NORTHEAST MISSISSIPPI
  
CITY           SKY/WX    TMP DP  RH WIND       PRES   REMARKS
ABERDEEN       LGT RAIN  46  46 100 N8        30.08R                  
COLUMBUS AFB   LGT RAIN  48  46  93 NE9       30.06F                  
CORINTH        RAIN      46  45  93 NE5G12    30.13S                  
GOLDN TRIANGLE LGT RAIN  48  47  96 N12       30.06R                  
STARKVILLE     CLOUDY    46  45  93 N8        30.06F                  
TUPELO         RAIN      46  44  93 N16       30.09S FOG              
$$

MSZ040-058-212300-
CENTRAL MISSISSIPPI
  
CITY           SKY/WX    TMP DP  RH WIND       PRES   REMARKS
JACKSON INTL   CLOUDY    52  50  93 NE9       30.01R FOG              
JACKSON HAWKNS CLOUDY    52  51  97 NE5       30.00F FOG              
MADISON        CLOUDY    48  48 100 CALM      30.01S                  
MERIDIAN KEY   RAIN      57  54  89 N7        30.01R FOG              
MERIDIAN NAS   LGT RAIN  54  53  97 NW9       30.03R                  
RAYMOND          N/A     50  50 100 VRB5      30.00F                  
VICKSBURG VKS  CLOUDY    50  50 100 VRB7      30.01R FOG              
$$

MSZ059>079-212300-
SOUTH MISSISSIPPI
  
CITY           SKY/WX    TMP DP  RH WIND       PRES   REMARKS
HATTIESBURG    PTSUNNY   67  65  93 N3        29.98S                  
LAUREL         CLOUDY    61  61 100 NE3       29.99S                  
MCCOMB         CLOUDY    66  62  87 NE3       29.95S                  
NATCHEZ        FOG       52  50  93 N7        29.98R VSB 1            
PINE BELT      CLOUDY    62  61  96 NE5       29.99S FOG              
$$

MSZ080>082-212300-
COASTAL MISSISSIPPI
  
CITY           SKY/WX    TMP DP  RH WIND       PRES   REMARKS
BAY ST LOUIS   FOG       72  70  94 SE12      29.99S VSB 1/2          
BILOXI         CLOUDY    71  70  94 S9        29.99R                  
PASCAGOULA     CLOUDY    76  70  82 S9        29.99R                  
GULFPORT       CLOUDY    71  70  96 SE12      29.98S FOG              
$$

LAZ007>009-015>016-023>026-212300-
NORTHEAST LOUISIANA
  
CITY           SKY/WX    TMP DP  RH WIND       PRES   REMARKS
BASTROP        CLOUDY    44  43  98 N6        30.07R                  
TALLULAH/VBURG LGT RAIN  47  45  93 N10       30.02R FOG              
VIDALIA        CLOUDY    50  50  97 N7        29.97S FOG              
$$